Location: Zagreb
(45.8000°N, 16.0000°E)
Time: 01:30:25
(UTC+01:00)

Vanguard 2 Rocket - Visible Passes

Search period start: 26 January 2020 00:00
Search period end: 05 February 2020 00:00
Orbit: 554 x 3326 km, 32.9° (Epoch: 25 January)

Date Brightness Start Highest point End Pass type
(mag) Time Alt. Az. Time Alt. Az. Time Alt. Az.
26 Jan 8.5 05:28:57 11° SSW 05:32:05 20° SSE 05:36:30 10° ESE visible
27 Jan 8.6 04:32:55 14° SSE 04:33:05 14° SSE 04:35:35 10° SE visible
27 Jan 8.6 06:40:55 10° SW 06:45:03 24° S 06:50:57 10° SE visible
28 Jan 8.4 05:42:40 11° SW 05:45:53 20° S 05:50:19 10° SE visible
29 Jan 8.3 04:46:35 16° S 04:46:50 16° SSE 04:49:54 10° SE visible
30 Jan 8.4 05:56:34 10° SW 05:59:46 19° S 06:03:51 10° SE visible
31 Jan 8.1 05:00:12 16° S 05:00:40 17° S 05:03:46 10° SE visible
01 Feb 8.4 06:11:02 10° SW 06:13:42 15° S 06:16:55 10° SSE visible
02 Feb 8.1 05:13:47 14° SSW 05:14:34 15° S 05:17:16 10° SSE visible
03 Feb 8.8 04:17:40 10° SSE 04:17:40 10° SSE 04:17:48 10° SE visible
03 Feb 8.7 06:26:38 10° SSW 06:27:39 11° SSW 06:28:43 10° S visible
04 Feb 8.3 05:27:23 11° SSW 05:28:28 12° S 05:30:01 10° SSE visible
